KB4QOR Weather Reports


Display with metric or nautical units.
time (UTC)temp
F
wind
direction
speed
MPH
gust
MPH
rain 1hr
in
rain 24hr
in
rain mn
in
humidity
%
barometer
mb
20260506193031 62 74 0.0 6.0 0.00 0.09 0.04 69 1013.5
20260506191530 62 0 0.0 6.0 0.00 0.09 0.04 70 1013.3
20260506190034 61 0 0.0 3.0 0.00 0.09 0.04 72 1013.4
20260506184536 62 56 0.0 6.0 0.00 0.09 0.04 74 1013.4
20260506183033 61 0 0.0 5.0 0.00 0.09 0.04 75 1013.4
20260506181532 60 0 0.0 3.0 0.00 0.09 0.04 75 1013.2
20260506180032 59 0 0.0 6.0 0.00 0.09 0.04 75 1013.3
20260506174531 57 73 0.0 4.0 0.00 0.09 0.04 75 1013.2
20260506173033 56 67 0.0 2.0 0.00 0.09 0.04 74 1013.2
20260506171530 55 39 0.0 6.0 0.00 0.09 0.04 74 1013.5
20260506170031 55 0 0.0 3.0 0.00 0.09 0.04 74 1013.7
20260506164534 54 58 0.0 4.0 0.00 0.09 0.04 74 1013.9
20260506163035 54 36 0.0 3.0 0.00 0.09 0.04 73 1014.1
20260506161531 53 0 0.0 4.0 0.00 0.09 0.04 73 1014.0
20260506160032 53 0 0.0 4.0 0.00 0.09 0.04 72 1013.9
20260506154530 52 46 0.0 4.0 0.00 0.09 0.04 72 1013.7
20260506153030 52 0 0.0 3.0 0.00 0.09 0.04 72 1013.5
20260506151530 52 55 0.0 3.0 0.00 0.09 0.04 72 1013.6
20260506150030 51 0 0.0 4.0 0.00 0.09 0.04 71 1013.2
20260506144534 51 0 0.0 2.0 0.00 0.09 0.04 71 1013.3
20260506143033 51 0 0.0 2.0 0.00 0.09 0.04 71 1013.4
20260506141532 50 60 0.0 4.0 0.00 0.09 0.04 70 1013.2
20260506140033 50 0 0.0 3.0 0.00 0.09 0.04 70 1013.0
20260506134531 50 0 0.0 5.0 0.00 0.09 0.04 70 1012.5
20260506133032 50 0 1.0 4.0 0.00 0.09 0.04 70 1012.4
20260506131601 49 60 0.0 4.0 0.00 0.09 0.04 69 1012.5
20260506130028 49 51 0.0 2.0 0.00 0.09 0.04 69 1012.0
20260506124530 49 55 0.0 4.0 0.00 0.09 0.04 69 1012.3
20260506123030 49 341 1.0 4.0 0.00 0.09 0.04 68 1012.1
20260506121528 49 77 0.0 6.0 0.00 0.09 0.04 68 1011.9
20260506120030 50 63 1.0 4.0 0.00 0.09 0.04 68 1011.7
20260506114533 50 63 1.0 4.0 0.00 0.09 0.04 68 1011.4
20260506113030 50 53 0.0 3.0 0.00 0.09 0.04 67 1011.3
20260506111529 51 0 1.0 6.0 0.00 0.09 0.04 67 1010.8
20260506110028 51 282 2.0 5.0 0.00 0.09 0.04 67 1010.6
20260506104531 51 47 0.0 2.0 0.00 0.09 0.04 66 1010.4
20260506103033 51 0 0.0 4.0 0.00 0.09 0.04 66 1010.2
20260506101541 51 48 1.0 4.0 0.00 0.09 0.04 66 1009.6
20260506100028 51 0 0.0 5.0 0.00 0.09 0.04 65 1009.6
20260506094530 52 63 0.0 4.0 0.00 0.09 0.04 64 1009.2
20260506093040 52 42 0.0 5.0 0.00 0.09 0.04 64 1009.1
20260506091529 52 41 1.0 7.0 0.00 0.09 0.04 63 1009.2
20260506090028 53 50 1.0 5.0 0.00 0.09 0.04 63 1009.3
20260506084528 53 84 1.0 5.0 0.00 0.09 0.04 63 1009.4
20260506083032 54 53 0.0 5.0 0.00 0.09 0.04 62 1008.7
20260506081533 54 0 1.0 4.0 0.00 0.09 0.04 62 1008.1
20260506073042 55 44 0.0 4.0 0.01 0.09 0.04 61 1007.5
20260506071553 56 70 1.0 5.0 0.01 0.09 0.04 61 1007.0
20260506061531 59 0 0.0 0.0 0.01 0.08 0.03 60 1006.4
20260506044604 59 0 0.0 2.0 0.00 0.05 0.00 57 1006.3
20260506043029 59 0 0.0 2.0 0.01 0.05 0.00 57 1006.4
20260506041527 59 0 0.0 2.0 0.01 0.05 0.00 57 1006.6
20260506040031 59 0 0.0 4.0 0.02 0.05 0.00 57 1006.7
20260506034553 60 261 0.0 3.0 0.03 0.05 0.05 57 1007.1
20260506033032 60 0 0.0 4.0 0.02 0.04 0.04 57 1007.5
20260506031531 60 271 0.0 4.0 0.02 0.04 0.04 58 1007.7
20260506030030 60 277 1.0 3.0 0.01 0.03 0.03 58 1007.9
20260506024530 60 271 1.0 8.0 0.00 0.02 0.02 58 1008.1
20260506023035 60 257 2.0 13.0 0.00 0.02 0.02 58 1008.3
20260506021533 61 274 2.0 6.0 0.00 0.02 0.02 58 1008.1
20260506020031 61 273 1.0 11.0 0.00 0.02 0.02 59 1007.8
20260506014530 61 254 2.0 10.0 0.00 0.02 0.02 60 1007.4
20260506013028 61 0 0.0 2.0 0.00 0.02 0.02 61 1007.5
20260506011532 61 0 0.0 0.0 0.00 0.02 0.02 62 1007.1
20260506010032 62 0 0.0 0.0 0.00 0.02 0.02 63 1007.0
20260506004539 62 0 0.0 0.0 0.00 0.02 0.02 64 1007.0
20260506003041 62 0 0.0 1.0 0.01 0.02 0.02 66 1007.1
20260506001528 63 0 0.0 0.0 0.01 0.02 0.02 67 1007.1
20260506000027 63 0 0.0 0.0 0.01 0.02 0.02 68 1007.3
20260505234620 63 0 0.0 3.0 0.01 0.02 0.02 68 1007.1
20260505234546 63 0 0.0 3.0 0.01 0.02 0.02 68 1007.1
20260505233028 64 284 1.0 7.0 0.01 0.01 0.01 69 1007.5
20260505231534 64 0 0.0 1.0 0.01 0.01 0.01 70 1007.6
20260505230037 64 0 0.0 2.0 0.01 0.01 0.01 70 1007.6
20260505224530 64 249 0.0 3.0 0.01 0.01 0.01 70 1007.7
20260505223031 64 249 1.0 10.0 0.00 0.00 0.00 71 1007.9
20260505221528 64 272 2.0 7.0 0.00 0.00 0.00 69 1007.6
20260505220041 64 277 1.0 6.0 0.00 0.00 0.00 69 1007.8
20260505214536 64 273 2.0 6.0 0.00 0.00 0.00 69 1007.9
20260505213028 64 266 1.0 6.0 0.00 0.00 0.00 69 1008.1
20260505211528 64 269 1.0 6.0 0.00 0.00 0.00 69 1008.4
20260505210028 64 0 0.0 3.0 0.00 0.00 0.00 69 1008.5
20260505204530 64 279 1.0 4.0 0.00 0.00 0.00 69 1008.8
20260505203028 64 0 0.0 3.0 0.00 0.00 0.00 70 1009.0
20260505201530 64 0 0.0 6.0 0.00 0.00 0.00 70 1009.0
20260505200030 64 276 1.0 7.0 0.00 0.00 0.00 71 1009.2
20260505194534 65 277 1.0 4.0 0.00 0.00 0.00 71 1009.4